WetterOnline ( http://www.wetteronline.de )

Wetter aktuell Konstanz

Aktuelles Wetter: Konstanz (397m)

6-stündlich | Neueste Meldungen
Ortszeit Temperatur Wetter
Di, 18.12. 19:00 0.2° C bedeckt
Di, 18.12. 13:00 2.3° C wolkig
Di, 18.12. 7:00 1.5° C Nebel
Di, 18.12. 1:00 3.1° C bedeckt
Mo, 17.12. 19:00 3.9° C bedeckt
Mo, 17.12. 13:00 3.2° C bedeckt
Mo, 17.12. 7:00 0.6° C Nebel
Mo, 17.12. 1:00 1.3° C Nebel
Ortszeit Temperatur Wetter
Di, 18.12. 23:30 -0.1° C bedeckt
Di, 18.12. 23:20 -0.1° C bedeckt
Di, 18.12. 23:10 -0.1° C bedeckt
Di, 18.12. 23:00 -0.0° C bedeckt
Di, 18.12. 22:50 -0.0° C bedeckt
Di, 18.12. 22:40 0.1° C bedeckt
Di, 18.12. 22:30 0.1° C bedeckt
Di, 18.12. 22:00 0.2° C Nebel
Di, 18.12. 21:30 0.4° C bedeckt
Di, 18.12. 21:00 0.5° C bedeckt
Di, 18.12. 20:30 0.5° C bedeckt
Ortszeit Relative Feuchte Sichtweite
Di, 18.12. 19:00 93% 7 km
Di, 18.12. 13:00 83% 19 km
Di, 18.12. 7:00 98% 0.2 km
Di, 18.12. 1:00 94% 14 km
Mo, 17.12. 19:00 89% 19 km
Mo, 17.12. 13:00 88% 11 km
Mo, 17.12. 7:00 99% 0.4 km
Mo, 17.12. 1:00 99% 0.2 km
Ortszeit Relative Feuchte Sichtweite
Di, 18.12. 23:30 96% 1.2 km
Di, 18.12. 23:20 96% -
Di, 18.12. 23:10 97% -
Di, 18.12. 23:00 96% 2.4 km
Di, 18.12. 22:50 96% -
Di, 18.12. 22:40 96% -
Di, 18.12. 22:30 96% 1.0 km
Di, 18.12. 22:00 96% 0.9 km
Di, 18.12. 21:30 93% 6 km
Di, 18.12. 21:00 93% 7 km
Di, 18.12. 20:30 93% 7 km
Ortszeit Niederschlagsmenge Niederschlagsart
Di, 18.12. 19:00 0.0 l/m2 in 12 Std. -
Di, 18.12. 13:00 0.0 l/m2 in 6 Std. -
Di, 18.12. 7:00 0.0 l/m2 in 12 Std. -
Di, 18.12. 1:00 0.0 l/m2 in 6 Std. -
Mo, 17.12. 19:00 0.1 l/m2 in 12 Std. Sprühregen
Mo, 17.12. 13:00 0.1 l/m2 in 6 Std. Regen
Mo, 17.12. 7:00 0.1 l/m2 in 12 Std. Sprühregen
Mo, 17.12. 1:00 0.0 l/m2 in 6 Std. -
Ortszeit Niederschlagsmenge Niederschlagsart
Di, 18.12. 23:30 0.0 l/m2 in 1 Std. -
Di, 18.12. 23:20 keine Meldung -
Di, 18.12. 23:10 keine Meldung -
Di, 18.12. 23:00 0.0 l/m2 in 1 Std. -
Di, 18.12. 22:50 keine Meldung -
Di, 18.12. 22:40 keine Meldung -
Di, 18.12. 22:30 0.0 l/m2 in 1 Std. -
Di, 18.12. 22:00 0.0 l/m2 in 1 Std. -
Di, 18.12. 21:30 0.0 l/m2 in 1 Std. -
Di, 18.12. 21:00 0.0 l/m2 in 1 Std. -
Di, 18.12. 20:30 0.0 l/m2 in 1 Std. -
Ortszeit Stärke Spitze Richtung
km/h Bft. km/h Grad Sektor
Di, 18.12. 19:00 6 1 19 290° W
Di, 18.12. 13:00 4 1 14 110° O
Di, 18.12. 7:00 6 1 11 290° W
Di, 18.12. 1:00 0 0 18 - -
Mo, 17.12. 19:00 9 2 26 260° W
Mo, 17.12. 13:00 6 1 11 240° SW
Mo, 17.12. 7:00 4 1 11 320° NW
Mo, 17.12. 1:00 6 1 11 350° N
Ortszeit Stärke Spitze Richtung
km/h Bft. km/h Grad Sektor
Di, 18.12. 23:30 6 1 11 40° NO
Di, 18.12. 23:20 6 1 - 40° NO
Di, 18.12. 23:10 6 1 - 360° N
Di, 18.12. 23:00 6 1 9 340° N
Di, 18.12. 22:50 6 1 - 340° N
Di, 18.12. 22:40 4 1 - 10° N
Di, 18.12. 22:30 4 1 7 70° O
Di, 18.12. 22:00 4 1 11 30° NO
Di, 18.12. 21:30 6 1 9 320° NW
Di, 18.12. 21:00 4 1 7 310° NW
Di, 18.12. 20:30 2 1 4 230° SW
Ortszeit Untergrenze Bedeckung Gattung
total tief tief mittel hoch
Di, 18.12. 19:00 120 m 8/8 8/8 - - -
Di, 18.12. 13:00 210 m 7/8 3/8 - - -
Di, 18.12. 7:00 <30 m 8/8 8/8 - - -
Di, 18.12. 1:00 990 m 8/8 8/8 - - -
Mo, 17.12. 19:00 1290 m 8/8 8/8 - - -
Mo, 17.12. 13:00 210 m 8/8 8/8 - - -
Mo, 17.12. 7:00 <30 m 8/8 8/8 - - -
Mo, 17.12. 1:00 <30 m 8/8 8/8 - - -
Ortszeit Bedeckungsgrad in Achtel und Wolkenuntergrenze
Di, 18.12. 23:30 8(30m)
Di, 18.12. 23:20 8(30m)
Di, 18.12. 23:10 8(30m)
Di, 18.12. 23:00 8(30m)
Di, 18.12. 22:50 8(30m)
Di, 18.12. 22:40 8(30m)
Di, 18.12. 22:30 8(30m)
Di, 18.12. 22:00 8(30m)
Di, 18.12. 21:30 8(90m)
Di, 18.12. 21:00 8(120m)
Di, 18.12. 20:30 8(120m)
Ortszeit Luftdruck NN (hPa) Tendenz (hPa in 3 Std.)
Di, 18.12. 19:00 1023 - 1,0
Di, 18.12. 13:00 1026 - 2,9
Di, 18.12. 7:00 1029 - 0,7
Di, 18.12. 1:00 1031 0,0
Mo, 17.12. 19:00 1029 + 2,3
Mo, 17.12. 13:00 1025 + 0,9
Mo, 17.12. 7:00 1022 + 2,6
Mo, 17.12. 1:00 1017 + 0,1
Ortszeit Luftdruck NN (hPa) Tendenz (hPa in 3 Std.)
Di, 18.12. 23:30 1022 - 0,8
Di, 18.12. 23:20 1022 keine Meldung
Di, 18.12. 23:10 1022 keine Meldung
Di, 18.12. 23:00 1022 - 0,9
Di, 18.12. 22:50 1022 keine Meldung
Di, 18.12. 22:40 1022 keine Meldung
Di, 18.12. 22:30 1022 - 1,0
Di, 18.12. 22:00 1022 - 0,8
Di, 18.12. 21:30 1022 - 0,7
Di, 18.12. 21:00 1022 - 1,0
Di, 18.12. 20:30 1023 - 1,2
Ortszeit Schneehöhe (cm)
Di, 18.12. 19:00 0
Di, 18.12. 13:00 0
Di, 18.12. 7:00 0
Di, 18.12. 1:00 0
Mo, 17.12. 19:00 0
Mo, 17.12. 13:00 0
Mo, 17.12. 7:00 -
Mo, 17.12. 1:00 -
Ortszeit Schneehöhe (cm)
Di, 18.12. 23:30 0
Di, 18.12. 23:20 0
Di, 18.12. 23:10 0
Di, 18.12. 23:00 0
Di, 18.12. 22:50 0
Di, 18.12. 22:40 0
Di, 18.12. 22:30 0
Di, 18.12. 22:00 0
Di, 18.12. 21:30 0
Di, 18.12. 21:00 0
Di, 18.12. 20:30 0
Link zu dieser Seite / Seite empfehlen

Das Wetter in ...